BAW903N EDDF-EGLL

Flight info

Callsign BAW903N
Flight time 1h 10m
Altitude 38000
Route OBOKA5G/25C OBOKA Z29 TORNU DCT BREDA DCT ABNED L980 LOGAN
Aircraft B772/H-SDE1E3FGHIJ3J4J5J6M1M2P2RWXYZ/LB1D1

Departure

Time 2026-04-14 09:42
Airport Frankfurt Main Airport (EDDF)

Arrival

Time 2026-04-14 10:52
Airport London Heathrow Airport (EGLL)
Time Latitude Longitude Altitude Speed Heading
2026-04-14 09:13 50.05094 8.58848 364 ft 0 kts 340°
2026-04-14 09:23 50.05091 8.58851 369 ft 2 kts 340°
2026-04-14 09:23 50.05073 8.58861 366 ft 3 kts 340°
2026-04-14 09:23 50.05054 8.58872 366 ft 3 kts 340°
2026-04-14 09:24 50.05038 8.58881 364 ft 3 kts 331°
2026-04-14 09:24 50.05024 8.58897 365 ft 3 kts 304°
2026-04-14 09:24 50.05016 8.58919 364 ft 3 kts 274°
2026-04-14 09:24 50.05017 8.58948 364 ft 3 kts 256°
2026-04-14 09:25 50.05023 8.58978 367 ft 3 kts 249°
2026-04-14 09:25 50.05030 8.59006 364 ft 2 kts 249°
2026-04-14 09:25 50.05032 8.59013 364 ft 0 kts 250°
2026-04-14 09:29 50.05031 8.59010 364 ft 2 kts 250°
2026-04-14 09:29 50.05022 8.58970 364 ft 7 kts 250°
2026-04-14 09:29 50.05006 8.58900 364 ft 7 kts 250°
2026-04-14 09:29 50.04989 8.58832 364 ft 7 kts 249°
2026-04-14 09:30 50.04970 8.58751 366 ft 8 kts 249°
2026-04-14 09:30 50.04942 8.58635 368 ft 14 kts 250°
2026-04-14 09:30 50.04920 8.58544 366 ft 14 kts 250°
2026-04-14 09:30 50.04877 8.58361 367 ft 14 kts 249°
2026-04-14 09:31 50.04843 8.58223 371 ft 14 kts 250°
2026-04-14 09:31 50.04811 8.58085 364 ft 14 kts 250°
2026-04-14 09:31 50.04758 8.57965 367 ft 14 kts 226°
2026-04-14 09:31 50.04698 8.57852 369 ft 14 kts 244°
2026-04-14 09:32 50.04674 8.57760 366 ft 14 kts 249°
2026-04-14 09:32 50.04642 8.57624 368 ft 14 kts 249°
2026-04-14 09:32 50.04504 8.57555 370 ft 12 kts 164°
2026-04-14 09:33 50.04432 8.57518 370 ft 12 kts 231°
2026-04-14 09:33 50.04396 8.57401 371 ft 12 kts 249°
2026-04-14 09:33 50.04366 8.57280 369 ft 12 kts 250°
2026-04-14 09:33 50.04337 8.57158 368 ft 12 kts 250°
2026-04-14 09:34 50.04309 8.57037 369 ft 12 kts 250°
2026-04-14 09:34 50.04279 8.56914 365 ft 12 kts 249°
2026-04-14 09:34 50.04249 8.56789 370 ft 12 kts 249°
2026-04-14 09:34 50.04219 8.56662 365 ft 12 kts 250°
2026-04-14 09:35 50.04189 8.56535 363 ft 14 kts 250°
2026-04-14 09:35 50.04147 8.56359 364 ft 18 kts 249°
2026-04-14 09:35 50.04103 8.56175 365 ft 18 kts 249°
2026-04-14 09:35 50.04059 8.55990 360 ft 18 kts 249°
2026-04-14 09:36 50.04014 8.55806 359 ft 18 kts 250°
2026-04-14 09:36 50.03970 8.55622 359 ft 18 kts 250°
2026-04-14 09:36 50.03927 8.55439 358 ft 18 kts 250°
2026-04-14 09:36 50.03883 8.55256 359 ft 18 kts 249°
2026-04-14 09:37 50.03838 8.55068 359 ft 18 kts 250°
2026-04-14 09:37 50.03795 8.54886 360 ft 18 kts 249°
2026-04-14 09:37 50.03751 8.54701 358 ft 18 kts 249°
2026-04-14 09:37 50.03706 8.54517 357 ft 18 kts 250°
2026-04-14 09:38 50.03674 8.54383 355 ft 10 kts 249°
2026-04-14 09:38 50.03629 8.54310 349 ft 10 kts 181°
2026-04-14 09:38 50.03559 8.54340 351 ft 10 kts 161°
2026-04-14 09:38 50.03492 8.54377 354 ft 10 kts 160°
2026-04-14 09:39 50.03424 8.54416 354 ft 11 kts 159°
2026-04-14 09:39 50.03335 8.54462 350 ft 14 kts 171°
2026-04-14 09:39 50.03247 8.54410 351 ft 14 kts 233°
2026-04-14 09:39 50.03206 8.54270 352 ft 14 kts 249°
2026-04-14 09:40 50.03170 8.54125 345 ft 14 kts 249°
2026-04-14 09:40 50.03135 8.53979 338 ft 15 kts 250°
2026-04-14 09:40 50.03094 8.53806 336 ft 17 kts 250°
2026-04-14 09:40 50.03077 8.53636 335 ft 16 kts 297°
2026-04-14 09:41 50.03173 8.53553 337 ft 16 kts 339°
2026-04-14 09:41 50.03273 8.53547 350 ft 15 kts 40°
2026-04-14 09:41 50.03297 8.53607 352 ft 0 kts 69°
2026-04-14 09:41 50.03305 8.53641 354 ft 16 kts 70°
2026-04-14 09:42 50.03420 8.54125 357 ft 88 kts 69°
2026-04-14 09:42 50.03727 8.55397 363 ft 161 kts 69°
2026-04-14 09:42 50.04119 8.57138 1099 ft 173 kts 71°
2026-04-14 09:42 50.04509 8.58929 2137 ft 176 kts 69°
2026-04-14 09:43 50.04912 8.60745 2947 ft 178 kts 65°
2026-04-14 09:43 50.05642 8.62263 3375 ft 176 kts 37°
2026-04-14 09:43 50.06616 8.63381 3637 ft 172 kts 38°
2026-04-14 09:43 50.07656 8.64221 3785 ft 173 kts
2026-04-14 09:44 50.08849 8.63987 4000 ft 174 kts 353°
2026-04-14 09:44 50.10073 8.63794 4161 ft 179 kts 355°
2026-04-14 09:44 50.11299 8.63614 4302 ft 175 kts 355°
2026-04-14 09:44 50.12506 8.63458 4442 ft 174 kts 356°
2026-04-14 09:45 50.13721 8.63320 4602 ft 177 kts 356°
2026-04-14 09:45 50.15028 8.63185 4791 ft 201 kts 356°
2026-04-14 09:45 50.16464 8.63050 4882 ft 209 kts 357°
2026-04-14 09:45 50.17925 8.62924 4953 ft 211 kts 357°
2026-04-14 09:46 50.19392 8.62808 4994 ft 211 kts 357°
2026-04-14 09:46 50.20867 8.62697 5172 ft 216 kts 357°
2026-04-14 09:46 50.22477 8.62580 5473 ft 246 kts 357°
2026-04-14 09:46 50.24230 8.62458 6250 ft 257 kts 357°
2026-04-14 09:47 50.26040 8.62333 7116 ft 264 kts 356°
2026-04-14 09:47 50.27825 8.62213 7974 ft 269 kts 356°
2026-04-14 09:47 50.29718 8.62089 8771 ft 276 kts 355°
2026-04-14 09:47 50.31591 8.61422 9453 ft 282 kts 330°
2026-04-14 09:48 50.33048 8.59408 10295 ft 283 kts 301°
2026-04-14 09:48 50.33920 8.56567 10794 ft 302 kts 289°
2026-04-14 09:48 50.34623 8.53365 11105 ft 326 kts 287°
2026-04-14 09:48 50.35320 8.49916 11949 ft 336 kts 286°
2026-04-14 09:49 50.36045 8.46416 12834 ft 341 kts 287°
2026-04-14 09:49 50.36794 8.42988 13189 ft 345 kts 290°
2026-04-14 09:49 50.37853 8.39556 13297 ft 352 kts 297°
2026-04-14 09:49 50.39020 8.36384 14265 ft 355 kts 298°
2026-04-14 09:50 50.40263 8.33044 15354 ft 356 kts 298°
2026-04-14 09:50 50.41486 8.29677 16350 ft 360 kts 297°
2026-04-14 09:50 50.42710 8.26217 17249 ft 367 kts 297°
2026-04-14 09:50 50.43943 8.22669 18183 ft 373 kts 297°
2026-04-14 09:51 50.45185 8.19056 19040 ft 379 kts 297°
2026-04-14 09:51 50.46437 8.15401 19930 ft 383 kts 297°
2026-04-14 09:51 50.47704 8.11691 20809 ft 387 kts 296°
2026-04-14 09:51 50.48980 8.07952 21696 ft 391 kts 296°
2026-04-14 09:52 50.50290 8.04167 22560 ft 396 kts 296°
2026-04-14 09:52 50.51616 8.00369 23407 ft 401 kts 296°
2026-04-14 09:52 50.52968 7.96498 24174 ft 406 kts 296°
2026-04-14 09:52 50.54277 7.92743 24911 ft 408 kts 297°
2026-04-14 09:53 50.55698 7.88675 25686 ft 411 kts 297°
2026-04-14 09:53 50.57071 7.84716 26353 ft 414 kts 297°
2026-04-14 09:53 50.58429 7.80745 26971 ft 419 kts 297°
2026-04-14 09:53 50.59840 7.76643 27639 ft 423 kts 297°
2026-04-14 09:54 50.61226 7.72620 28293 ft 426 kts 298°
2026-04-14 09:54 50.62641 7.68512 28917 ft 429 kts 298°
2026-04-14 09:54 50.64075 7.64354 29506 ft 432 kts 298°
2026-04-14 09:54 50.65512 7.60171 30096 ft 436 kts 298°
2026-04-14 09:55 50.66955 7.55959 30608 ft 439 kts 298°
2026-04-14 09:55 50.68369 7.51821 31048 ft 441 kts 298°
2026-04-14 09:55 50.69829 7.47540 31497 ft 444 kts 298°
2026-04-14 09:55 50.71294 7.43241 31940 ft 446 kts 298°
2026-04-14 09:56 50.72766 7.38914 32337 ft 449 kts 298°
2026-04-14 09:56 50.74247 7.34554 32722 ft 452 kts 298°
2026-04-14 09:56 50.75717 7.30155 33083 ft 454 kts 297°
2026-04-14 09:56 50.77165 7.25707 33436 ft 457 kts 297°
2026-04-14 09:57 50.78608 7.21225 33842 ft 457 kts 297°
2026-04-14 09:57 50.80044 7.16760 34326 ft 455 kts 297°
2026-04-14 09:57 50.81481 7.12299 34733 ft 454 kts 297°
2026-04-14 09:57 50.82915 7.07851 35087 ft 455 kts 297°
2026-04-14 09:58 50.84353 7.03390 35429 ft 456 kts 297°
2026-04-14 09:58 50.85794 6.98916 35791 ft 456 kts 297°
2026-04-14 09:58 50.87232 6.94443 36157 ft 456 kts 297°
2026-04-14 09:58 50.88673 6.89967 36507 ft 457 kts 297°
2026-04-14 09:59 50.90116 6.85485 36817 ft 457 kts 297°
2026-04-14 09:59 50.91563 6.80988 37149 ft 458 kts 297°
2026-04-14 09:59 50.93007 6.76492 37500 ft 458 kts 297°
2026-04-14 09:59 50.94450 6.71987 37835 ft 458 kts 297°
2026-04-14 10:00 50.95892 6.67478 38115 ft 460 kts 297°
2026-04-14 10:00 50.98800 6.58354 38185 ft 463 kts 297°
2026-04-14 10:01 51.01675 6.49298 38180 ft 456 kts 297°
2026-04-14 10:01 51.04525 6.40289 38206 ft 457 kts 297°
2026-04-14 10:02 51.07349 6.31333 38200 ft 457 kts 297°
2026-04-14 10:02 51.10194 6.22275 38201 ft 457 kts 297°
2026-04-14 10:03 51.13009 6.13225 38207 ft 456 kts 295°
2026-04-14 10:03 51.15111 6.03706 38198 ft 456 kts 285°
2026-04-14 10:04 51.16613 5.93899 38199 ft 455 kts 285°
2026-04-14 10:04 51.18468 5.84289 38198 ft 452 kts 294°
2026-04-14 10:05 51.21301 5.75377 38186 ft 450 kts 302°
2026-04-14 10:05 51.24621 5.66929 38193 ft 449 kts 303°
2026-04-14 10:06 51.27954 5.58496 38211 ft 449 kts 303°
2026-04-14 10:06 51.31259 5.50024 38207 ft 449 kts 303°
2026-04-14 10:07 51.34542 5.41532 38213 ft 449 kts 302°
2026-04-14 10:07 51.37776 5.33135 38213 ft 449 kts 302°
2026-04-14 10:08 51.41042 5.24625 38198 ft 449 kts 302°
2026-04-14 10:08 51.44306 5.16096 38214 ft 448 kts 302°
2026-04-14 10:09 51.47559 5.07570 38205 ft 448 kts 302°
2026-04-14 10:09 51.50778 4.99102 38227 ft 447 kts 302°
2026-04-14 10:10 51.54007 4.90576 38219 ft 447 kts 301°
2026-04-14 10:10 51.56661 4.81566 38214 ft 447 kts 291°
2026-04-14 10:11 51.58460 4.71994 38206 ft 447 kts 287°
2026-04-14 10:11 51.60129 4.62380 38202 ft 447 kts 287°
2026-04-14 10:12 51.61812 4.52750 38191 ft 447 kts 287°
2026-04-14 10:12 51.63504 4.43128 38185 ft 447 kts 287°
2026-04-14 10:13 51.65194 4.33511 38189 ft 446 kts 287°
2026-04-14 10:13 51.66875 4.23888 38187 ft 446 kts 287°
2026-04-14 10:14 51.68548 4.14262 38189 ft 446 kts 287°
2026-04-14 10:14 51.70211 4.04631 38194 ft 446 kts 287°
2026-04-14 10:15 51.71867 3.94993 38193 ft 446 kts 286°
2026-04-14 10:15 51.73515 3.85347 38189 ft 446 kts 286°
2026-04-14 10:16 51.75158 3.75682 38191 ft 446 kts 286°
2026-04-14 10:16 51.76791 3.66014 38186 ft 446 kts 286°
2026-04-14 10:17 51.78415 3.56352 38189 ft 446 kts 286°
2026-04-14 10:17 51.80001 3.46858 38193 ft 446 kts 286°
2026-04-14 10:18 51.82142 3.33965 38195 ft 446 kts 285°
2026-04-14 10:18 51.83727 3.24256 38193 ft 446 kts 283°
2026-04-14 10:19 51.84457 3.14280 38201 ft 448 kts 273°
2026-04-14 10:19 51.84148 3.04187 38202 ft 450 kts 266°
2026-04-14 10:20 51.83443 2.94135 38198 ft 450 kts 265°
2026-04-14 10:20 51.82752 2.84072 38194 ft 450 kts 266°
2026-04-14 10:21 51.82418 2.79029 37833 ft 453 kts 265°
2026-04-14 10:21 51.82087 2.73983 37359 ft 449 kts 266°
2026-04-14 10:21 51.81782 2.69004 37017 ft 441 kts 266°
2026-04-14 10:21 51.81499 2.64121 36717 ft 432 kts 266°
2026-04-14 10:22 51.81226 2.59326 36340 ft 426 kts 266°
2026-04-14 10:22 51.80956 2.54641 35897 ft 422 kts 266°
2026-04-14 10:22 51.80676 2.49874 35435 ft 419 kts 266°
2026-04-14 10:22 51.80403 2.45274 35020 ft 415 kts 266°
2026-04-14 10:23 51.80125 2.40662 34630 ft 410 kts 265°
2026-04-14 10:23 51.79848 2.36096 34239 ft 406 kts 265°
2026-04-14 10:23 51.79573 2.31584 33760 ft 402 kts 265°
2026-04-14 10:23 51.79298 2.27103 33290 ft 399 kts 265°
2026-04-14 10:24 51.79023 2.22664 32816 ft 396 kts 265°
2026-04-14 10:24 51.78748 2.18256 32337 ft 393 kts 265°
2026-04-14 10:24 51.78473 2.13886 31878 ft 390 kts 265°
2026-04-14 10:24 51.78199 2.09553 31440 ft 386 kts 265°
2026-04-14 10:25 51.77926 2.05254 31002 ft 383 kts 264°
2026-04-14 10:25 51.77654 2.00994 30569 ft 381 kts 264°
2026-04-14 10:25 51.77382 1.96750 30126 ft 378 kts 264°
2026-04-14 10:25 51.77111 1.92559 29609 ft 374 kts 264°
2026-04-14 10:26 51.76843 1.88404 29072 ft 371 kts 263°
2026-04-14 10:26 51.76572 1.84271 28523 ft 369 kts 263°
2026-04-14 10:26 51.76305 1.80169 27973 ft 367 kts 263°
2026-04-14 10:26 51.76034 1.76087 27460 ft 365 kts 263°
2026-04-14 10:27 51.75765 1.72031 26953 ft 362 kts 263°
2026-04-14 10:27 51.75497 1.68007 26465 ft 360 kts 263°
2026-04-14 10:27 51.75231 1.63997 25992 ft 358 kts 262°
2026-04-14 10:27 51.74961 1.60026 25538 ft 356 kts 262°
2026-04-14 10:28 51.74691 1.56061 25075 ft 354 kts 262°
2026-04-14 10:28 51.74423 1.52132 24625 ft 352 kts 262°
2026-04-14 10:28 51.74155 1.48214 24186 ft 350 kts 262°
2026-04-14 10:28 51.73887 1.44312 23761 ft 349 kts 262°
2026-04-14 10:29 51.73620 1.40435 23253 ft 347 kts 262°
2026-04-14 10:29 51.73352 1.36579 22788 ft 345 kts 262°
2026-04-14 10:29 51.73086 1.32756 22333 ft 341 kts 262°
2026-04-14 10:29 51.72826 1.29040 21735 ft 338 kts 262°
2026-04-14 10:30 51.72559 1.25264 21216 ft 339 kts 261°
2026-04-14 10:30 51.72293 1.21502 20794 ft 336 kts 261°
2026-04-14 10:30 51.72029 1.17774 20411 ft 333 kts 261°
2026-04-14 10:30 51.71765 1.14082 20003 ft 330 kts 261°
2026-04-14 10:31 51.71503 1.10414 19575 ft 329 kts 261°
2026-04-14 10:31 51.71239 1.06755 19157 ft 328 kts 261°
2026-04-14 10:31 51.70977 1.03115 18753 ft 326 kts 261°
2026-04-14 10:31 51.70714 0.99496 18346 ft 324 kts 261°
2026-04-14 10:32 51.70451 0.95898 17890 ft 322 kts 261°
2026-04-14 10:32 51.70194 0.92313 17448 ft 321 kts 262°
2026-04-14 10:32 51.69948 0.88757 17033 ft 319 kts 262°
2026-04-14 10:32 51.69702 0.85219 16619 ft 317 kts 262°
2026-04-14 10:33 51.69457 0.81691 16195 ft 316 kts 262°
2026-04-14 10:33 51.69214 0.78189 15795 ft 314 kts 262°
2026-04-14 10:33 51.68968 0.74698 15388 ft 312 kts 262°
2026-04-14 10:33 51.68722 0.71232 14997 ft 311 kts 262°
2026-04-14 10:34 51.68231 0.64343 14215 ft 308 kts 262°
2026-04-14 10:34 51.67984 0.60924 13826 ft 307 kts 262°
2026-04-14 10:34 51.67739 0.57520 13429 ft 305 kts 262°
2026-04-14 10:35 51.67497 0.54164 13157 ft 298 kts 262°
2026-04-14 10:35 51.67259 0.50884 12902 ft 292 kts 262°
2026-04-14 10:35 51.67026 0.47667 12683 ft 286 kts 262°
2026-04-14 10:35 51.66790 0.44487 12473 ft 285 kts 262°
2026-04-14 10:36 51.66555 0.41317 12262 ft 285 kts 262°
2026-04-14 10:36 51.66321 0.38150 12053 ft 284 kts 262°
2026-04-14 10:36 51.66089 0.34999 11844 ft 283 kts 262°
2026-04-14 10:36 51.65856 0.31849 11633 ft 283 kts 262°
2026-04-14 10:37 51.65621 0.28707 11433 ft 282 kts 262°
2026-04-14 10:37 51.65387 0.25575 11230 ft 282 kts 262°
2026-04-14 10:37 51.65152 0.22448 11026 ft 281 kts 262°
2026-04-14 10:37 51.64918 0.19339 10822 ft 279 kts 262°
2026-04-14 10:38 51.64693 0.16374 10628 ft 278 kts 262°
2026-04-14 10:38 51.64489 0.13464 10447 ft 277 kts 263°
2026-04-14 10:38 51.64327 0.10610 10259 ft 276 kts 264°
2026-04-14 10:38 51.64163 0.07547 10064 ft 275 kts 264°
2026-04-14 10:39 51.63999 0.04481 9854 ft 274 kts 264°
2026-04-14 10:39 51.63834 0.01434 9638 ft 273 kts 264°
2026-04-14 10:39 51.63668 -0.01609 9428 ft 273 kts 263°
2026-04-14 10:39 51.63500 -0.04647 9214 ft 272 kts 263°
2026-04-14 10:40 51.63329 -0.07723 8978 ft 272 kts 263°
2026-04-14 10:40 51.63161 -0.10702 8775 ft 271 kts 263°
2026-04-14 10:40 51.63005 -0.13463 8573 ft 271 kts 263°
2026-04-14 10:40 51.62859 -0.16019 8402 ft 270 kts 263°
2026-04-14 10:41 51.62687 -0.19023 8194 ft 270 kts 263°
2026-04-14 10:41 51.62515 -0.22026 7984 ft 269 kts 263°
2026-04-14 10:41 51.62343 -0.25016 7779 ft 268 kts 263°
2026-04-14 10:41 51.62170 -0.28008 7590 ft 268 kts 263°
2026-04-14 10:42 51.61995 -0.30993 7378 ft 267 kts 263°
2026-04-14 10:42 51.61821 -0.33965 7185 ft 267 kts 263°
2026-04-14 10:42 51.61646 -0.36941 6979 ft 267 kts 263°
2026-04-14 10:42 51.61471 -0.39905 6771 ft 266 kts 263°
2026-04-14 10:43 51.61296 -0.42866 6582 ft 265 kts 262°
2026-04-14 10:43 51.61122 -0.45814 6379 ft 264 kts 262°
2026-04-14 10:43 51.60944 -0.48762 6178 ft 264 kts 262°
2026-04-14 10:43 51.60767 -0.51698 5948 ft 263 kts 262°
2026-04-14 10:44 51.60592 -0.54622 5752 ft 262 kts 262°
2026-04-14 10:44 51.60416 -0.57537 5538 ft 261 kts 262°
2026-04-14 10:44 51.60239 -0.60436 5334 ft 260 kts 262°
2026-04-14 10:44 51.60063 -0.63320 5133 ft 259 kts 262°
2026-04-14 10:45 51.59888 -0.66193 4924 ft 258 kts 262°
2026-04-14 10:45 51.59710 -0.69054 4736 ft 257 kts 262°
2026-04-14 10:45 51.59531 -0.71895 4497 ft 253 kts 262°
2026-04-14 10:45 51.59354 -0.74685 4307 ft 249 kts 262°
2026-04-14 10:46 51.59180 -0.77420 4052 ft 239 kts 260°
2026-04-14 10:46 51.58661 -0.79788 3799 ft 225 kts 231°
2026-04-14 10:46 51.57467 -0.81281 3610 ft 217 kts 198°
2026-04-14 10:46 51.55973 -0.81387 3565 ft 220 kts 165°
2026-04-14 10:47 51.54586 -0.80361 3548 ft 221 kts 152°
2026-04-14 10:47 51.53260 -0.79099 3481 ft 222 kts 151°
2026-04-14 10:47 51.51954 -0.77832 3435 ft 216 kts 151°
2026-04-14 10:47 51.50693 -0.76598 3313 ft 209 kts 151°
2026-04-14 10:48 51.49471 -0.75395 3147 ft 204 kts 150°
2026-04-14 10:48 51.48379 -0.74048 3027 ft 196 kts 128°
2026-04-14 10:48 51.47957 -0.72042 3039 ft 191 kts 100°
2026-04-14 10:48 51.47810 -0.69932 2903 ft 189 kts 100°
2026-04-14 10:49 51.47705 -0.67826 2616 ft 188 kts 96°
2026-04-14 10:49 51.47687 -0.65779 2340 ft 178 kts 93°
2026-04-14 10:49 51.47692 -0.63852 2117 ft 169 kts 92°
2026-04-14 10:49 51.47701 -0.61979 1887 ft 166 kts 92°
2026-04-14 10:50 51.47707 -0.60186 1688 ft 157 kts 93°
2026-04-14 10:50 51.47713 -0.58510 1467 ft 147 kts 93°
2026-04-14 10:50 51.47719 -0.56897 1285 ft 144 kts 92°
2026-04-14 10:50 51.47725 -0.55285 1025 ft 143 kts 94°
2026-04-14 10:51 51.47731 -0.53724 787 ft 139 kts 94°
2026-04-14 10:51 51.47734 -0.52160 617 ft 140 kts 95°
2026-04-14 10:51 51.47741 -0.50605 420 ft 140 kts 96°
2026-04-14 10:51 51.47749 -0.49025 199 ft 142 kts 94°
2026-04-14 10:52 51.47762 -0.47524 93 ft 131 kts 95°
2026-04-14 10:52 51.47758 -0.46291 94 ft 64 kts 89°
2026-04-14 10:52 51.47758 -0.45738 92 ft 39 kts 90°
2026-04-14 10:52 51.47740 -0.45505 93 ft 14 kts 131°
2026-04-14 10:53 51.47658 -0.45472 92 ft 12 kts 180°
2026-04-14 10:53 51.47599 -0.45534 94 ft 11 kts 251°
2026-04-14 10:53 51.47595 -0.45661 95 ft 11 kts 270°
2026-04-14 10:53 51.47595 -0.45789 94 ft 11 kts 269°
2026-04-14 10:54 51.47594 -0.45916 94 ft 11 kts 269°
2026-04-14 10:54 51.47594 -0.46039 94 ft 11 kts 270°
2026-04-14 10:54 51.47594 -0.46167 94 ft 11 kts 270°
2026-04-14 10:54 51.47593 -0.46294 94 ft 11 kts 270°
2026-04-14 10:55 51.47593 -0.46421 94 ft 11 kts 270°
2026-04-14 10:55 51.47592 -0.46549 91 ft 11 kts 269°
2026-04-14 10:55 51.47592 -0.46676 91 ft 11 kts 269°
2026-04-14 10:55 51.47590 -0.46803 91 ft 11 kts 264°
2026-04-14 10:56 51.47583 -0.46930 95 ft 11 kts 268°
2026-04-14 10:56 51.47582 -0.47057 95 ft 11 kts 270°
2026-04-14 10:56 51.47582 -0.47184 95 ft 11 kts 270°
2026-04-14 10:56 51.47582 -0.47311 95 ft 11 kts 270°
2026-04-14 10:57 51.47582 -0.47438 95 ft 11 kts 270°
2026-04-14 10:57 51.47581 -0.47566 94 ft 11 kts 269°
2026-04-14 10:57 51.47580 -0.47693 114 ft 11 kts 269°
2026-04-14 10:57 51.47577 -0.47820 94 ft 11 kts 259°
2026-04-14 10:58 51.47511 -0.47873 94 ft 11 kts 183°
2026-04-14 10:58 51.47436 -0.47874 92 ft 6 kts 178°
2026-04-14 10:58 51.47409 -0.47892 92 ft 5 kts 231°
2026-04-14 10:58 51.47399 -0.47942 94 ft 5 kts 262°
2026-04-14 10:59 51.47398 -0.47985 94 ft 2 kts 268°
2026-04-14 10:59 51.47397 -0.48012 94 ft 2 kts 268°
2026-04-14 10:59 51.47397 -0.48026 94 ft 0 kts 269°